Regional Weather Roundup
Issued by NWS Bismarck, ND

Home | Current Version | Previous Version | Text Only | Print | Product List | Glossary On
Versions: 1 2 3 4 5 6 7 8 9 10 11 12 13 14 15 16 17 18 19 20 21 22 23 24 25 26 27 28 29 30 31 32 33 34 35 36 37 38 39 40 41 42 43 44 45 46 47 48 49 50
000
ASUS43 KBIS 190110
RWRBIS

NWR BROADCAST TEXT
NATIONAL WEATHER SERVICE BISMARCK ND
700 PM CST THU DEC 18 2014

NOTE: "FAIR" INDICATES FEW OR NO CLOUDS BELOW 12,000 FEET WITH NO
SIGNIFICANT WEATHER AND/OR OBSTRUCTIONS TO VISIBILITY.


CITY           SKY/WX    TMP DP  RH WIND       PRES   REMARKS
WILLISTON      CLOUDY    28  26  92 S5        29.95S
MINOT          CLOUDY    23  19  85 SE6       29.99R WCI  16
MINOT AFB      CLOUDY    22  22  99 SE6       29.99R WCI  15
BISMARCK       CLOUDY    26  24  92 S8        30.03S WCI  18
DICKINSON      FOG       20  17  88 S6        29.93R VSB 1/4 WCI  12
GARRISON         N/A     26  22  84 NW3       29.98S
HETTINGER ARPT CLEAR     26  24  92 CALM      29.97S
JAMESTOWN      CLOUDY    22  20  92 S12       30.07S WCI  10
BEACH          FAIR      28  28 100 SW10      29.93S WCI  19
CARRINGTON     CLOUDY    21  21 100 MISG      30.06S
CROSBY         CLOUDY    25  25 100 SW3       29.95F
HARVEY         CLOUDY    23  23 100 S6        30.03S WCI  16
HAZEN          CLOUDY    27  23  86 CALM      30.00S
LINTON         CLOUDY    27  27 100 S13       30.03S FOG     WCI  16
MANDAN         CLOUDY    27  25  93 S8        30.02R FOG     WCI  18
OAKES          LGT SNOW  23  23 100 S9        30.12S WCI  13
RUGBY          CLOUDY    19  19 100 SE8       30.02F FOG     WCI   9
STANLEY        CLOUDY    23  23 100 S6        29.94F FOG     WCI  16
TIOGA          CLOUDY    25  25 100 S3        29.97S
WATFORD CITY   CLOUDY    28  28 100 S5        29.93S
$$

CITY           SKY/WX    TMP DP  RH WIND       PRES   REMARKS
GRAND FORKS    CLOUDY    19  15  84 S9        30.16F WCI   8
GRAND FORKS AF CLOUDY    19  18  96 S10       30.15F WCI   7
DEVILS LAKE    CLOUDY    21  12  68 SE13      30.04F WCI   9
FARGO          CLOUDY    21  15  78 S13       30.18S WCI   9
CANDO          CLOUDY    19  19 100 S9        30.06S FOG     WCI   9
CAVALIER       CLOUDY    19  16  86 S10       30.14F WCI   8
GWINNER        CLOUDY    23  23 100 MISG      30.14F
LANGDON        CLOUDY    19  16  86 S10       30.06S WCI   8
ROLLA          CLOUDY    18  18 100 S9        30.02F FOG     WCI   6
WALHALLA         N/A     18  18 100 SE10      30.13S WCI   6
$$

CITY           SKY/WX    TMP DP  RH WIND       PRES   REMARKS
ABERDEEN       CLOUDY    26  22  84 S9        30.13S WCI  17
MOBRIDGE       CLOUDY    28  25  88 S8        30.02S WCI  20
BUFFALO          N/A     33  24  69 SW7       29.90S
RAPID CITY     CLEAR     27  22  81 CALM      30.00R
GLASGOW        CLEAR     24  21  88 NE5       29.90F WCI  18
SIDNEY         CLEAR     19  19 100 CALM      29.95S
WOLF POINT     CLEAR     23  21  92 CALM      29.93S
GLENDIVE       CLEAR     27  23  86 S8        29.93S WCI  18
MILES CITY     CLEAR     33  23  66 SW7       29.94S
BAKER          CLEAR     29  26  89 W5        29.94F
$$

CITY           SKY/WX    TMP DP  RH WIND       PRES   REMARKS
BILLINGS       MOCLDY    35  21  56 W20       29.97S
GREAT FALLS    MOCLDY    36  26  67 SW17G23   29.90S
REGINA         FLURRIES  25  25 100 S9        29.90S WCI  15
ESTEVAN        FLURRIES  23  23 100 SW7       29.95S WCI  15
$$



USA.gov is the U.S. government's official web portal to all federal, state and local government web resources and services.